Regional Weather Roundup
Issued by NWS Green Bay, WI

Home | Current Version | Previous Version | Graphics & Text | Print | Product List | Glossary Off
Versions: 1 2 3 4 5 6 7 8 9 10 11 12 13 14 15 16 17 18 19 20 21 22 23 24 25 26 27 28 29 30 31 32 33 34 35 36 37 38 39 40 41 42 43 44 45 46 47 48 49 50

000
ASUS43 KGRB 201610
RWRGRB

NORTH-CENTRAL AND NORTHEAST WISCONSIN REGIONAL WEATHER ROUNDUP
NATIONAL WEATHER SERVICE GREEN BAY WI
1000 AM CST THU NOV 20 2014

WIZ005-009-010>012-018-019-201700-
NORTH CENTRAL WISCONSIN

CITY           SKY/WX    TMP DP  RH WIND       PRES   REMARKS
IRONWOOD       CLOUDY     9   7  92 W13       29.85R VSB 1/2 WCI  -7
MANITOWISH WTR CLOUDY     8   0  72 W9G18     29.86R WCI  -6
ARBOR VITAE    MOSUNNY   11   4  71 W10G18    29.87R WCI  -2
EAGLE RIVER    MOSUNNY    9  -1  63 NW12G20   29.84R WCI  -6
LAND O LAKES   CLOUDY    11   4  72 W10G20    29.83R HAZE    WCI  -3
RHINELANDER    MOSUNNY    8  -1  66 W16G22    29.87R WCI -10
PHILLIPS       PTSUNNY    8  -1  69 W6        29.91R WCI  -3
ANTIGO         MOSUNNY    9   0  68 W14G22    29.88R WCI  -8
TOMAHAWK       MOSUNNY    8   0  67 W7G20     29.91R WCI  -3
MERRILL        PTSUNNY    9   0  67 NW13G20   29.93R WCI  -6
$$

WIZ013-073-201700-
NORTHEAST WISCONSIN

CITY           SKY/WX    TMP DP  RH WIND       PRES   REMARKS
IRON MOUNTAIN  PTSUNNY   13   1  59 W14       29.83R WCI  -2
MARINETTE      SUNNY     16   3  57 NW13G20   29.89R WCI   2
OCONTO         SUNNY     17   4  57 W15G23    29.92R WCI   3
$$

WIZ017-030-035>037-045-201700-
CENTRAL WISCONSIN

CITY           SKY/WX    TMP DP  RH WIND       PRES   REMARKS
MEDFORD        MOSUNNY    8   0  68 W14G20    29.93R WCI  -8
WAUSAU         MOSUNNY   10   1  67 W13       29.94R WCI  -5
MOSINEE        PTSUNNY   10   1  67 W17G24    29.96R WCI  -7
MARSHFIELD     SUNNY     11   1  64 NW17G23   29.97R WCI  -6
WISC RAPIDS    MOSUNNY   13   0  56 NW18G26   30.01R WCI  -4
STEVENS POINT  MOSUNNY   10  -1  61 NW13G20   29.98R WCI  -5
WAUPACA        SUNNY     18   3  52 W15G21    29.98R WCI   3
SHAWANO        SUNNY     17   4  56 W14       29.94R WCI   3
CLINTONVILLE   SUNNY     16   3  57 NW15G23   29.95R WCI   1
$$

WIZ038-039-048-051-201700-
FOX VALLEY

CITY           SKY/WX    TMP DP  RH WIND       PRES   REMARKS
NWS GREEN BAY  SUNNY     17   5  59 W17       29.95R WCI   1
APPLETON       MOSUNNY   16   1  53 NW20G28   29.95R WCI  -1
OSHKOSH        LGT SNOW  16   8  71 W13       29.97R WCI   2
FOND DU LAC    MOSUNNY   17   5  59 W21G28    29.98R WCI   0
$$

WIZ022-050-052-201700-
EAST CENTRAL WISCONSIN

CITY           SKY/WX    TMP DP  RH WIND       PRES   REMARKS
STURGEON BAY   PTSUNNY   18   3  53 W18G24    29.89R WCI   2
MANITOWOC      SUNNY     19   6  57 NW18G28   29.94R WCI   4
SHEBOYGAN      LGT SNOW  17   8  67 NW15G24   29.96R WCI   2
$$

LMZ563-521-522-541>543-201700-
LAKESHORE

STATION/POSITION TIME  TEMP    WIND        PRES    VSBY  WAVE
                       AIR SEA DIR/SP/G                  HT/PER
                 (UTC) (F)     (DEG/KT/KT) (MB)    (MI)  (FT/S)
SHEBOYGAN LKSHOR 1600   17 34  300/ 16/ 20 1016.0R
KEWAUNEE LKSHORE 1600   17     290/ 10/ 18 1012.3R
ALGOMA MARINA    1600          310/ 17/ 24   N/A
NORTHPORT PIER   1600   20     290/ 10/ 20 1011.5R
N MID LAKE BUOY  1600   22 42  310/ 21/ 27 1011.1R         5/ 5
SISTER BAY LKSHO 1500          310/ 24/ 29   N/A
CHAMBERS ISLAND  1600   19     280/  9/ 18 1012.2R
MENOMINEE LKSHOR 1600   16     270/ 14/ 19 1013.0R
$$



USA.gov is the U.S. government's official web portal to all federal, state and local government web resources and services.